Other Public Products
Issued by NWS Grand Forks, ND

Home | Current Version | Previous Version | Graphics & Text | Print | Product List | Glossary Off
Versions: 1 2 3 4 5 6 7 8 9 10 11 12 13 14 15 16 17 18 19 20 21 22 23 24 25 26 27 28 29 30 31 32 33 34 35 36 37 38 39 40 41 42 43 44 45 46 47 48 49 50

000
FPUS83 KFGF 210831
OPUFGF
PRAIRIE TO PINES WEATHER ROUNDUP
NATIONAL WEATHER SERVICE EASTERN NORTH DAKOTA/GRAND FORKS ND
300 AM CDT SUN SEP 21 2014

 **SATELLITE DATA USED TO AUGMENT SKY COVER AT AUTOMATED STATIONS**
 *****  WEATHER ACROSS EASTERN NORTH DAKOTA  *****

CITY           SKY/WX    TMP DP  RH WIND       PRES   REMARKS
GRAND FORKS    CLEAR     51  48  89 NW6       30.03R
GRAND FORKS AF CLEAR     51  51  97 N7        30.04R
GRAND CITY NWS   N/A     50 N/A N/A N5          N/A
BUXTON           N/A     50  50  98 NW7         N/A
DEVILS LAKE    PTCLDY    48  43  81 NW8       30.08R
FARGO          CLEAR     52  47  83 NW9       30.03R
WAHPETON ARPT  MOSUNNY   52  45  76 NW8       30.03R
$$

 *****  WEATHER ACROSS CENTRAL AND WESTERN NORTH DAKOTA  *****

CITY           SKY/WX    TMP DP  RH WIND       PRES   REMARKS
JAMESTOWN      PTCLDY    52  45  77 NW8       30.09R
BISMARCK       CLEAR     50  42  74 W8        30.17R
MINOT          CLEAR     51  40  65 W12       30.15R
MINOT AFB      CLEAR     47  44  90 W9        30.14S
GARRISON         N/A     47  41  80 NW9       30.16S
WILLISTON      CLEAR     48  37  65 E6        30.22R
DICKINSON      CLEAR     43  35  73 W7        30.22R
HETTINGER      CLEAR     37  32  82 W3        30.25S
$$

 *****  OTHER OBSERVATIONS NORTHEAST NORTH DAKOTA  *****

CITY           SKY/WX    TMP DP  RH WIND       PRES   REMARKS
WALHALLA         N/A     52  52 100 NW9       30.06R
LANGDON        FAIR      45  45 100 NW7       30.07R
CAVALIER       FAIR      54  50  87 NW12      30.04R
GRAFTON        FAIR      50  50 100 NW8       30.03S
CANDO          CLOUDY    46  45  93 W5        30.11R
FORT TOTTEN      N/A     56  49  76 N7        29.95S
ROLLA          CLOUDY    52  48  87 NW9       30.11S
RUGBY          FAIR      46  46 100 NW8       30.12R
 ***** THE ABOVE OBSERVATIONS ARE NON NWS ARE NOT QUALITY
        CONTROLLED AND MAY MIS-REPORT RAIN FOR SNOW...
$$

 *****  OTHER OBSERVATIONS SOUTHEAST NORTH DAKOTA *****

CITY           SKY/WX    TMP DP  RH WIND       PRES   REMARKS
COOPERSTOWN    NOT AVBL
VALLEY CITY    FAIR      48  48 100 NW8       30.08R
OAKES            N/A     48  48 100 NW8       30.08S
GWINNER        SUNNY     52  46  82 NW5       30.08R
SHEYENNE NWR     N/A     53  48  82 NW5       29.95S
BUFFALO          N/A     48  45  88 W5          N/A
WYNDMERE         N/A     54  48  82 NW6         N/A
 ***** THE ABOVE OBSERVATIONS ARE NON NWS ARE NOT QUALITY
       CONTROLLED AND MAY MIS-REPORT RAIN FOR SNOW...
$$

  *****  WEATHER ACROSS NORTHERN MINNESOTA  *****

CITY           SKY/WX    TMP DP  RH WIND       PRES   REMARKS
FLAG ISLAND    MOCLDY    52  50  93 NW8       29.95S
WARROAD        CLOUDY    52  46  82 CALM      29.98R
ROSEAU         CLOUDY    52  46  82 NW7       29.98R HAZE
HALLOCK        CLEAR     52  48  87 NW9       30.02R
THF RVR FALLS  MOCLDY    52  48  87 NW9       30.01R
HALSTAD          N/A     50  48  93 N9          N/A
FOSSTON        CLOUDY    48  48 100 NW10      30.01R
BAUDETTE       CLOUDY    50  48  93 W5        29.95R
WASKISH        CLOUDY    50  48  93 NW6       29.97R
CROOKSTON      CLEAR     48  48 100 NW7       30.03R
$$
  *****  WEATHER ACROSS CENTRAL AND WEST MINNESOTA  *****

CITY           SKY/WX    TMP DP  RH WIND       PRES   REMARKS
BEMIDJI        RAIN      49  47  95 NW9       29.98R
PARK RAPIDS    PTCLDY    50  47  89 N13       29.97R
WADENA         PTCLDY    48  46  93 NW7       29.97R
DETROIT LAKES  CLOUDY    52  50  93 NW12      30.01S
MOORHEAD       CLEAR     52  52 100 NW7       30.04R
FERGUS FALLS   CLEAR     50  48  93 NW10      30.03R
ELBOW LAKE     FAIR      52  49  91 NW9       30.01R
MORRIS MN      CLEAR     52  48  87 NW10      30.00R
STAPLES        PTCLDY    48  46  93 NW8       29.96R
WHEATON        PTCLDY    52  46  82 NW9       30.05R
$$
  *****  WEATHER ELSEWHERE ACROSS MINNESOTA  *****

CITY           SKY/WX    TMP DP  RH WIND       PRES   REMARKS
DULUTH         LGT RAIN  52  49  89 N10       29.83R
INTRNTL FALLS  CLOUDY    48  47  96 NW9       29.93R
ELY            CLOUDY    50  48  93 N5        29.85R
CLOQUET        DRIZZLE   52  48  87 NW10G17   29.84R
BRAINERD       MOCLDY    50  46  86 NW13      29.93R
HIBBING        LGT RAIN  52  49  89 N12       29.88R
ALEXANDRIA     PTCLDY    52  49  89 NW13G22   29.99R
SAINT CLOUD    CLOUDY    55  48  77 NW13      29.92R
MINNEAPOLIS    MOCLDY    55  48  77 NW18G26   29.89R
$$

  *****  WEATHER ACROSS SOUTH DAKOTA  *****

CITY           SKY/WX    TMP DP  RH WIND       PRES   REMARKS
SIOUX FALLS    CLEAR     54  43  66 NW9       30.07S
BROOKINGS      NOT AVBL
WATERTOWN      CLEAR     54  44  69 NW15      30.06R
HURON          CLEAR     51  40  65 NW10      30.10S
SISSETON         N/A     52  47  83 N9        30.03R
ABERDEEN       CLEAR     54  42  64 NW12      30.10R
MITCHELL       CLEAR     54  42  64 NW10      30.12S
PIERRE         CLEAR     51  43  74 NW13      30.17S
MOBRIDGE       CLEAR     48  43  82 NW6       30.15R
RAPID CITY     CLEAR     50  38  63 NW9       30.31R
$$

  *****  SOME WEATHER IN NEARBY STATES *****

CITY           SKY/WX    TMP DP  RH WIND       PRES   REMARKS
GLASGOW MT     CLEAR     44  36  73 NE5       30.26R
GREAT FALLS MT CLEAR     50  42  74 CALM      30.26S
CHEYENNE WY    CLOUDY    55  38  52 E5        30.41S
SCOTTSBLUFF NE MOCLDY    51  43  74 NE7       30.33S
OMAHA NE       CLEAR     59  55  87 CALM      30.08S
DES MOINES IA  CLEAR     57  51  80 W6        30.00S
DAVENPORT IA   CLEAR     55  50  83 W6        29.90S
CHICAGO IL     PTCLDY    63  55  75 NW18G31   29.75R
EAU CLAIRE WI  CLOUDY    54  48  80 NW18G25   29.77R
LA CROSSE WI   PTCLDY    60  50  69 W18G24    29.79S
$$

  *****  SOME NATIONAL WEATHER *****

CITY           SKY/WX    TMP DP  RH WIND       PRES   REMARKS
LA GUARDIA NY  CLOUDY    66  64  94 E3        29.94F
RALEIGH NC     MOCLDY    65  61  87 VRB5      29.92F
ATLANTA GA     CLEAR     65  60  84 CALM      30.02F
NEW ORLEANS LA CLEAR     77  68  73 E3        29.96F
OKLAHOMA CITY  PTCLDY    71  65  81 SE5       30.06S
ALBUQUERQUE NM MOCLDY    70  56  61 SE7       30.24S
SALT LAKE CITY CLOUDY    66  50  56 SW6       30.07F
LOS ANGELES CA CLEAR     68  63  84 W7        29.95R
BOISE ID       PTCLDY    66  43  43 S5        30.02R
SEATTLE WA     CLEAR     59  55  87 NW3       29.89F
$$

*** WEATHER ACROSS MANITOBA...SASKATCHEWAN AND ONTARIO ***
                ***ONTARIO***

CITY           SKY/WX    TMP DP  RH WIND       PRES   REMARKS
GERALDTON      CLOUDY    41  37  87 N9        29.83R
THUNDER BAY    CLOUDY    50  45  81 N6        29.82R
SIOUX LOOKOUT  MOCLDY    41  39  93 N5        29.93R
TORONTO        MOCLDY    66  61  82 SW9       29.69F
BIG TROUT LK   CLOUDY    39  37  93 N5        29.95R
PICKLE LAKE    NOT AVBL
DRYDEN         PTCLDY    45  43  93 N7        29.94R
KENORA         CLOUDY    50  48  93 NW7       29.96R
$$
                *** MANITOBA***

CITY           SKY/WX    TMP DP  RH WIND       PRES   REMARKS
BRANDON        PTCLDY    50  48  93 NW10      30.10R
DAUPHIN        CLOUDY    54  52  94 NW7       30.09R
ISLAND LAKE    PTCLDY    43  39  87 CALM      30.01R
PILOT MOUND    NOT AVBL
THE PAS        PTCLDY    48  46  93 CALM      30.06S
THOMPSON       PTCLDY    30  30 100 CALM      30.02S
WINNIPEG       PTCLDY    50  48  93 NW10      30.03R
LYNN LAKE      CLOUDY    46  45  93 SW8       29.98S
CHURCHILL      CLEAR     32  32 100 W5        29.98S
GILLAM         CLEAR     28  28 100 S3        30.02R
$$
                ***SASKATCHEWAN***

CITY           SKY/WX    TMP DP  RH WIND       PRES   REMARKS
ESTEVAN        CLEAR     43  41  93 NW5       30.19
KINDERSLEY     CLEAR     43  39  87 S7        30.20S
LLOYDMINSTER   CLEAR     50  37  62 SW10      30.12S
PRINCE ALBERT  FOG       37  37 100 VRB2      30.12R VSB 1/2
REGINA         CLEAR     41  39  93 W6        30.19R


USA.gov is the U.S. government's official web portal to all federal, state and local government web resources and services.